TimeEST,TemperatureF,Dew PointF,Humidity,Sea Level PressureIn,VisibilityMPH,Wind Direction,Wind SpeedMPH,Gust SpeedMPH,PrecipitationIn,Events,Conditions,WindDirDegrees,DateUTC
12:53 AM,7.0,1.0,77,30.53,10.0,SSE,3.5,-,0.00,,Scattered Clouds,150,2013-01-25 05:53:00
1:53 AM,7.0,1.0,77,30.52,10.0,South,3.5,-,N/A,,Clear,170,2013-01-25 06:53:00
2:53 AM,6.1,1.0,80,30.51,10.0,Calm,Calm,-,N/A,,Clear,0,2013-01-25 07:53:00
3:53 AM,7.0,1.0,77,30.47,10.0,ESE,4.6,-,N/A,,Clear,120,2013-01-25 08:53:00
4:53 AM,7.0,1.0,77,30.46,10.0,SSE,5.8,-,N/A,,Scattered Clouds,160,2013-01-25 09:53:00
5:53 AM,8.1,1.9,76,30.43,10.0,SSE,4.6,-,N/A,,Overcast,160,2013-01-25 10:53:00
6:53 AM,9.0,1.9,73,30.39,10.0,SE,5.8,-,N/A,,Overcast,130,2013-01-25 11:53:00
7:53 AM,10.0,1.9,70,30.35,10.0,SE,6.9,-,N/A,,Overcast,130,2013-01-25 12:53:00
8:53 AM,10.9,3.9,73,30.32,10.0,SE,5.8,-,N/A,,Overcast,130,2013-01-25 13:53:00
9:53 AM,12.0,3.9,70,30.30,10.0,SSE,8.1,-,N/A,,Overcast,150,2013-01-25 14:53:00
10:53 AM,14.0,5.0,67,30.27,10.0,SE,5.8,-,N/A,,Overcast,140,2013-01-25 15:53:00
2:34 PM,15.8,8.6,73,30.07,3.0,SSE,5.8,-,0.00,Snow,Light Snow,160,2013-01-25 19:34:00
2:44 PM,15.8,8.6,73,30.06,4.0,South,8.1,-,0.00,,Haze,170,2013-01-25 19:44:00
2:53 PM,16.0,8.1,71,30.12,5.0,SSE,5.8,-,0.00,,Haze,160,2013-01-25 19:53:00
3:53 PM,16.0,8.1,71,30.09,8.0,SSE,5.8,-,0.00,,Overcast,160,2013-01-25 20:53:00
4:53 PM,16.0,7.0,68,30.08,10.0,SE,3.5,-,N/A,,Overcast,140,2013-01-25 21:53:00
5:53 PM,15.1,7.0,70,30.08,8.0,SSE,3.5,-,0.00,Snow,Light Snow,160,2013-01-25 22:53:00
6:53 PM,15.1,8.1,74,30.09,10.0,Calm,Calm,-,0.00,,Overcast,0,2013-01-25 23:53:00
7:53 PM,15.1,9.0,77,30.09,10.0,Calm,Calm,-,N/A,,Overcast,0,2013-01-26 00:53:00
8:53 PM,15.1,9.0,77,30.09,10.0,Calm,Calm,-,0.00,,Overcast,0,2013-01-26 01:53:00
9:53 PM,15.1,9.0,77,30.09,7.0,Calm,Calm,-,0.00,Snow,Light Snow,0,2013-01-26 02:53:00
10:53 PM,15.1,10.0,80,30.11,4.0,SSW,3.5,-,0.01,Snow,Light Snow,210,2013-01-26 03:53:00
11:12 PM,15.8,10.4,79,30.06,2.5,SSW,3.5,-,0.00,Snow,Light Snow,210,2013-01-26 04:12:00
11:20 PM,15.8,10.4,79,30.06,1.2,SSW,4.6,-,0.00,Snow,Light Snow,210,2013-01-26 04:20:00
11:41 PM,15.8,10.4,79,30.06,2.0,SSW,4.6,-,0.00,Snow,Light Snow,210,2013-01-26 04:41:00
11:53 PM,16.0,10.0,77,30.11,2.0,SSW,4.6,-,0.00,Snow,Light Snow,200,2013-01-26 04:53:00